Date,TemperatureHighF,TemperatureAvgF,TemperatureLowF,DewpointHighF,DewpointAvgF,DewpointLowF,HumidityHigh,HumidityAvg,HumidityLow,PressureMaxIn,PressureMinIn,WindSpeedMaxMPH,WindSpeedAvgMPH,GustSpeedMaxMPH,PrecipitationSumIn
2013-4-1,39.0,29.7,19.6,29.9,14.7,8.5,89,56,32,29.18,29.00,15,0,30,0.00
2013-4-2,52.7,38.1,20.7,29.9,16.5,9.6,77,45,29,29.15,29.06,9,0,21,0.00
2013-4-3,57.6,43.4,29.8,25.1,19.1,14.6,55,39,27,29.18,29.03,11,0,21,0.00
2013-4-4,62.1,48.1,29.7,31.7,25.2,16.5,76,43,30,29.06,28.88,22,1,34,0.00
2013-4-5,70.2,53.7,34.2,34.7,28.0,21.7,69,39,24,29.00,28.56,12,1,28,0.00
2013-4-6,69.1,58.5,50.4,40.8,33.5,30.5,57,40,26,28.64,28.44,22,3,40,0.00
2013-4-7,76.3,57.5,42.8,48.0,37.2,31.9,83,50,23,28.70,28.50,18,0,26,0.00
2013-4-8,62.4,57.8,46.9,54.8,51.5,42.7,85,80,76,28.56,28.44,14,1,21,0.00
2013-4-9,62.4,62.4,62.4,54.8,54.8,54.8,76,76,76,28.79,28.44,41,19,56,0.00
2013-4-10,62.4,62.4,62.4,54.8,54.8,54.8,76,76,76,28.82,28.64,32,15,46,0.00
2013-4-11,62.4,62.4,62.4,54.8,54.8,54.8,76,76,76,28.64,28.50,25,10,34,0.00
2013-4-12,62.4,62.4,62.4,54.8,54.8,54.8,76,76,76,28.85,28.56,34,8,39,0.00
2013-4-13,62.4,62.4,62.4,54.8,54.8,54.8,76,76,76,28.85,28.53,14,2,26,0.00
2013-4-14,62.4,62.4,62.4,54.8,54.8,54.8,76,76,76,28.53,28.17,18,2,25,0.00
2013-4-15,62.4,62.4,62.4,54.8,54.8,54.8,76,76,76,28.94,28.53,0,0,8,0.00
2013-4-16,62.4,62.4,62.4,54.8,54.8,54.8,76,76,76,29.09,28.91,0,0,13,0.00
2013-4-17,62.4,62.4,62.4,54.8,54.8,54.8,76,76,76,29.00,28.56,44,10,53,0.00
2013-4-18,62.4,62.4,62.4,54.8,54.8,54.8,76,76,76,28.73,28.53,45,15,54,0.00
2013-4-19,62.4,51.7,30.6,54.8,35.5,13.9,76,56,31,28.94,28.70,15,1,30,0.00
2013-4-20,50.2,37.3,21.9,23.5,16.2,11.5,77,45,28,29.09,28.94,0,0,0,0.00
2013-4-21,71.6,55.6,43.0,47.8,32.5,21.1,81,45,25,28.97,28.82,18,0,22,0.00
2013-4-22,54.7,51.6,46.2,46.6,44.3,40.1,80,76,74,29.06,28.79,36,7,54,0.00
2013-4-23,54.7,54.7,54.7,46.6,46.6,46.6,74,74,74,29.09,29.00,36,9,46,0.00
2013-4-24,54.7,54.7,54.7,46.6,46.6,46.6,74,74,74,29.03,28.88,21,1,49,0.00
2013-4-25,68.7,56.8,28.9,46.6,33.3,23.3,84,46,23,29.09,28.85,21,1,32,0.00
2013-4-26,74.7,60.5,49.8,42.7,36.2,28.2,74,42,29,29.03,28.85,12,1,21,0.00
2013-4-27,68.2,55.9,42.4,49.2,41.6,38.0,85,62,35,29.06,28.79,0,0,11,0.00
2013-4-28,81.1,65.1,46.0,51.3,42.4,39.4,84,50,23,28.79,28.53,13,0,27,0.00
2013-4-29,84.4,68.3,55.6,49.0,44.2,38.6,70,45,22,28.61,28.38,8,0,26,0.00
2013-4-30,76.1,68.9,61.7,48.7,40.4,33.1,47,36,30,28.73,28.35,27,4,36,0.00